Location: Unspecified
(50.7693°N, 0.0000°E)
Time: 11:11:13
(UTC+00:00)

Transit 2A Rocket - Pass Details

Date: 31 October 2019
Orbit: 594 x 909 km, 66.7° (Epoch: 14 November)

Event Time Altitude Azimuth Distance (km) Brightness Sun altitude
Exits shadow 06:00:29 - 313° (NW) 2,297 7.0 -8.2°
Reaches altitude 10° 06:02:08 10° 330° (NNW) 2,000 6.8 -7.9°
Maximum altitude 06:03:31 11° 348° (NNW) 1,904 6.8 -7.7°
Drops below altitude 10° 06:04:53 10° 7° (N) 1,971 7.1 -7.5°
Sets 06:08:49 0° 43° (NE) 2,849 8.4 -6.9°
